User: anonymous   Login
Location: *
(46.4000°N, 12.6667°E)
Time: 01:43:57
(UTC+00:00)
Language:

Cosmos 2058 Rocket - Orbit

View from above orbital plane
View from above orbital plane
View from above satellite
View from above satellite

Ground track
Ground track

The orbit data is extracted from the following two-line orbital elements,

1 20466U 90010B   20192.84759793  .00000046  00000-0  28540-5 0  9998
2 20466  82.5025  44.8839 0018989 260.0325  99.8746 14.81387662643250
Epoch (UTC): 10 July 2020 20:20:32
Eccentricity: 0.0018989
inclination: 82.5025°
perigee height: 611 km
apogee height: 638 km
right ascension of ascending node: 44.8839°
argument of perigee: 260.0325°
revolutions per day: 14.81387662
mean anomaly at epoch: 99.8746°
orbit number at epoch: 64325

The dashed part of the orbit path shows where the satellite is in the earth's shadow,  

DLR